Time,TemperatureF,DewpointF,PressureIn,WindDirection,WindDirectionDegrees,WindSpeedMPH,WindSpeedGustMPH,Humidity,HourlyPrecipIn,Conditions,Clouds,dailyrainin,SolarRadiationWatts/m^2,SoftwareType,DateUTC
2013-08-14 00:01:00,55.0,43.0,30.18,SE,137,0.0,1.0,64,0.00,,,0.00,0,LWC V2.00 B727,2013-08-14 06:01:00,
2013-08-14 00:06:00,55.2,43.2,30.18,SE,131,0.0,2.0,64,0.00,,,0.00,0,LWC V2.00 B727,2013-08-14 06:06:00,
2013-08-14 00:11:00,55.3,42.9,30.18,SE,140,0.0,1.0,63,0.00,,,0.00,0,LWC V2.00 B727,2013-08-14 06:11:00,
2013-08-14 00:16:00,55.5,43.1,30.18,SE,136,0.0,3.0,63,0.00,,,0.00,0,LWC V2.00 B727,2013-08-14 06:16:00,
2013-08-14 00:21:00,55.6,43.2,30.19,SE,132,0.0,2.0,63,0.00,,,0.00,0,LWC V2.00 B727,2013-08-14 06:21:00,
2013-08-14 00:26:00,55.7,42.9,30.19,SE,129,0.0,2.0,62,0.00,,,0.00,0,LWC V2.00 B727,2013-08-14 06:26:00,
2013-08-14 00:31:00,55.7,42.9,30.19,SE,133,0.0,1.0,62,0.00,,,0.00,0,LWC V2.00 B727,2013-08-14 06:31:00,
2013-08-14 00:36:00,55.8,43.0,30.19,SE,133,0.0,1.0,62,0.00,,,0.00,0,LWC V2.00 B727,2013-08-14 06:36:00,
2013-08-14 00:41:00,55.8,43.0,30.19,SE,136,2.0,3.0,62,0.00,,,0.00,0,LWC V2.00 B727,2013-08-14 06:41:00,
2013-08-14 00:46:00,55.8,43.0,30.19,SSE,165,1.0,1.0,62,0.00,,,0.00,0,LWC V2.00 B727,2013-08-14 06:46:00,
2013-08-14 00:51:00,55.7,42.5,30.18,SSE,165,0.0,2.0,61,0.00,,,0.00,0,LWC V2.00 B727,2013-08-14 06:51:00,
2013-08-14 00:56:00,55.5,42.7,30.19,SSE,164,0.0,2.0,62,0.00,,,0.00,0,LWC V2.00 B727,2013-08-14 06:56:00,
2013-08-14 01:01:00,55.0,42.2,30.19,SSE,165,0.0,2.0,62,0.00,,,0.00,0,LWC V2.00 B727,2013-08-14 07:01:00,
2013-08-14 01:06:00,54.5,42.2,30.19,SSE,162,0.0,2.0,63,0.00,,,0.00,0,LWC V2.00 B727,2013-08-14 07:06:00,
2013-08-14 01:11:00,54.4,42.5,30.19,SE,126,0.0,0.0,64,0.00,,,0.00,0,LWC V2.00 B727,2013-08-14 07:11:00,
2013-08-14 01:16:00,54.5,42.2,30.19,SE,130,1.0,2.0,63,0.00,,,0.00,0,LWC V2.00 B727,2013-08-14 07:16:00,
2013-08-14 01:21:00,54.5,42.2,30.19,SE,134,0.0,2.0,63,0.00,,,0.00,0,LWC V2.00 B727,2013-08-14 07:21:00,
2013-08-14 01:26:00,54.2,41.9,30.19,SSE,157,0.0,3.0,63,0.00,,,0.00,0,LWC V2.00 B727,2013-08-14 07:26:00,
2013-08-14 01:31:00,53.8,41.9,30.18,SSE,158,0.0,1.0,64,0.00,,,0.00,0,LWC V2.00 B727,2013-08-14 07:31:00,
2013-08-14 01:36:00,53.4,41.5,30.19,SSE,159,1.0,2.0,64,0.00,,,0.00,0,LWC V2.00 B727,2013-08-14 07:36:00,
2013-08-14 01:41:00,53.1,41.6,30.19,SSE,159,0.0,2.0,65,0.00,,,0.00,0,LWC V2.00 B727,2013-08-14 07:41:00,
2013-08-14 01:46:00,52.8,41.4,30.19,SSE,159,0.0,3.0,65,0.00,,,0.00,0,LWC V2.00 B727,2013-08-14 07:46:00,
2013-08-14 01:51:00,52.6,41.2,30.19,SSE,159,0.0,1.0,65,0.00,,,0.00,0,LWC V2.00 B727,2013-08-14 07:51:00,
2013-08-14 01:56:00,52.5,41.5,30.19,SSE,159,0.0,3.0,66,0.00,,,0.00,0,LWC V2.00 B727,2013-08-14 07:56:00,
2013-08-14 02:01:00,52.4,41.4,30.19,SSE,159,1.0,3.0,66,0.00,,,0.00,0,LWC V2.00 B727,2013-08-14 08:01:00,
2013-08-14 02:06:00,52.4,41.4,30.18,SSE,160,0.0,3.0,66,0.00,,,0.00,0,LWC V2.00 B727,2013-08-14 08:06:00,
2013-08-14 02:11:00,52.3,41.3,30.18,SE,140,2.0,4.0,66,0.00,,,0.00,0,LWC V2.00 B727,2013-08-14 08:11:00,
2013-08-14 02:16:00,52.0,41.0,30.18,SSW,202,0.0,3.0,66,0.00,,,0.00,0,LWC V2.00 B727,2013-08-14 08:16:00,
2013-08-14 02:21:00,51.7,40.7,30.18,SSW,202,0.0,1.0,66,0.00,,,0.00,0,LWC V2.00 B727,2013-08-14 08:21:00,
2013-08-14 02:26:00,51.5,40.9,30.18,SSW,202,1.0,2.0,67,0.00,,,0.00,0,LWC V2.00 B727,2013-08-14 08:26:00,
2013-08-14 02:31:00,51.4,40.8,30.18,SSW,202,0.0,1.0,67,0.00,,,0.00,0,LWC V2.00 B727,2013-08-14 08:31:00,
2013-08-14 02:36:00,51.3,41.1,30.18,SSW,202,1.0,1.0,68,0.00,,,0.00,0,LWC V2.00 B727,2013-08-14 08:36:00,
2013-08-14 02:41:00,51.3,40.7,30.19,SSW,202,0.0,1.0,67,0.00,,,0.00,0,LWC V2.00 B727,2013-08-14 08:41:00,
2013-08-14 02:46:00,51.2,41.0,30.19,SSW,202,0.0,0.0,68,0.00,,,0.00,0,LWC V2.00 B727,2013-08-14 08:46:00,
2013-08-14 02:51:00,51.0,40.4,30.19,SSW,202,2.0,3.0,67,0.00,,,0.00,0,LWC V2.00 B727,2013-08-14 08:51:00,
2013-08-14 02:56:00,50.8,40.6,30.19,SSW,199,1.0,1.0,68,0.00,,,0.00,0,LWC V2.00 B727,2013-08-14 08:56:00,
2013-08-14 03:01:00,50.7,40.5,30.19,SSW,196,0.0,1.0,68,0.00,,,0.00,0,LWC V2.00 B727,2013-08-14 09:01:00,
2013-08-14 03:06:00,50.6,40.4,30.19,SSW,195,0.0,2.0,68,0.00,,,0.00,0,LWC V2.00 B727,2013-08-14 09:06:00,
2013-08-14 03:11:00,50.5,40.3,30.19,SSW,195,0.0,0.0,68,0.00,,,0.00,0,LWC V2.00 B727,2013-08-14 09:11:00,
2013-08-14 03:16:00,50.3,40.5,30.19,SSW,195,2.0,2.0,69,0.00,,,0.00,0,LWC V2.00 B727,2013-08-14 09:16:00,
2013-08-14 03:21:00,50.1,40.3,30.19,SSW,194,0.0,0.0,69,0.00,,,0.00,0,LWC V2.00 B727,2013-08-14 09:21:00,
2013-08-14 03:26:00,49.9,40.1,30.19,SSW,194,0.0,0.0,69,0.00,,,0.00,0,LWC V2.00 B727,2013-08-14 09:26:00,
2013-08-14 03:31:00,49.7,40.3,30.19,SSW,194,0.0,0.0,70,0.00,,,0.00,0,LWC V2.00 B727,2013-08-14 09:31:00,
2013-08-14 03:36:00,49.5,40.1,30.19,SSW,194,0.0,0.0,70,0.00,,,0.00,0,LWC V2.00 B727,2013-08-14 09:36:00,
2013-08-14 03:41:00,49.2,40.2,30.19,SSW,194,0.0,1.0,71,0.00,,,0.00,0,LWC V2.00 B727,2013-08-14 09:41:00,
2013-08-14 03:46:00,48.9,39.9,30.20,SSW,194,0.0,0.0,71,0.00,,,0.00,0,LWC V2.00 B727,2013-08-14 09:46:00,
2013-08-14 03:51:00,48.8,39.8,30.20,SSW,194,0.0,0.0,71,0.00,,,0.00,0,LWC V2.00 B727,2013-08-14 09:51:00,
2013-08-14 03:56:00,48.7,40.1,30.20,SSW,194,1.0,1.0,72,0.00,,,0.00,0,LWC V2.00 B727,2013-08-14 09:56:00,
2013-08-14 04:01:00,48.7,40.1,30.20,SSW,194,0.0,1.0,72,0.00,,,0.00,0,LWC V2.00 B727,2013-08-14 10:01:00,
2013-08-14 04:06:00,48.7,40.1,30.20,SSW,194,0.0,1.0,72,0.00,,,0.00,0,LWC V2.00 B727,2013-08-14 10:06:00,
2013-08-14 04:11:00,48.7,40.1,30.20,SSW,194,0.0,0.0,72,0.00,,,0.00,0,LWC V2.00 B727,2013-08-14 10:11:00,
2013-08-14 04:16:00,48.7,40.1,30.20,SSW,192,0.0,1.0,72,0.00,,,0.00,0,LWC V2.00 B727,2013-08-14 10:16:00,
2013-08-14 04:21:00,48.7,40.1,30.20,SSW,192,0.0,1.0,72,0.00,,,0.00,0,LWC V2.00 B727,2013-08-14 10:21:00,
2013-08-14 04:26:00,48.6,40.0,30.21,SSW,192,0.0,2.0,72,0.00,,,0.00,0,LWC V2.00 B727,2013-08-14 10:26:00,
2013-08-14 04:31:00,48.6,40.0,30.20,SSW,192,0.0,2.0,72,0.00,,,0.00,0,LWC V2.00 B727,2013-08-14 10:31:00,
2013-08-14 04:36:00,48.6,40.0,30.20,SSW,192,0.0,0.0,72,0.00,,,0.00,0,LWC V2.00 B727,2013-08-14 10:36:00,
2013-08-14 04:41:00,48.5,40.2,30.21,South,191,0.0,1.0,73,0.00,,,0.00,0,LWC V2.00 B727,2013-08-14 10:41:00,
2013-08-14 04:46:00,48.4,40.1,30.21,South,190,0.0,1.0,73,0.00,,,0.00,0,LWC V2.00 B727,2013-08-14 10:46:00,
2013-08-14 04:51:00,48.2,40.0,30.20,South,190,0.0,2.0,73,0.00,,,0.00,0,LWC V2.00 B727,2013-08-14 10:51:00,
2013-08-14 04:56:00,48.1,40.2,30.21,South,190,2.0,3.0,74,0.00,,,0.00,0,LWC V2.00 B727,2013-08-14 10:56:00,
2013-08-14 05:01:00,48.2,40.3,30.21,South,190,2.0,3.0,74,0.00,,,0.00,0,LWC V2.00 B727,2013-08-14 11:01:00,
2013-08-14 05:06:00,48.2,40.3,30.21,South,190,1.0,2.0,74,0.00,,,0.00,0,LWC V2.00 B727,2013-08-14 11:06:00,
2013-08-14 05:11:00,48.3,40.4,30.22,South,190,0.0,1.0,74,0.00,,,0.00,0,LWC V2.00 B727,2013-08-14 11:11:00,
2013-08-14 05:16:00,48.5,40.6,30.22,South,187,0.0,2.0,74,0.00,,,0.00,0,LWC V2.00 B727,2013-08-14 11:16:00,
2013-08-14 05:21:00,48.6,40.7,30.21,SSE,159,0.0,3.0,74,0.00,,,0.00,0,LWC V2.00 B727,2013-08-14 11:21:00,
2013-08-14 05:26:00,48.8,40.9,30.21,SE,146,0.0,0.0,74,0.00,,,0.00,0,LWC V2.00 B727,2013-08-14 11:26:00,
2013-08-14 05:31:00,48.8,40.9,30.22,SSE,148,0.0,0.0,74,0.00,,,0.00,0,LWC V2.00 B727,2013-08-14 11:31:00,
2013-08-14 05:36:00,48.8,40.9,30.22,SSE,148,0.0,1.0,74,0.00,,,0.00,0,LWC V2.00 B727,2013-08-14 11:36:00,
2013-08-14 05:41:00,48.8,40.9,30.22,SSE,149,2.0,2.0,74,0.00,,,0.00,0,LWC V2.00 B727,2013-08-14 11:41:00,
2013-08-14 05:46:00,48.8,40.9,30.22,South,178,0.0,3.0,74,0.00,,,0.00,0,LWC V2.00 B727,2013-08-14 11:46:00,
2013-08-14 05:51:00,48.8,40.9,30.22,South,175,0.0,0.0,74,0.00,,,0.00,0,LWC V2.00 B727,2013-08-14 11:51:00,
2013-08-14 05:56:00,48.8,41.2,30.22,South,171,0.0,1.0,75,0.00,,,0.00,0,LWC V2.00 B727,2013-08-14 11:56:00,
2013-08-14 06:01:00,48.8,41.2,30.22,South,171,0.0,0.0,75,0.00,,,0.00,0,LWC V2.00 B727,2013-08-14 12:01:00,
2013-08-14 06:06:00,48.7,41.1,30.22,South,171,0.0,0.0,75,0.00,,,0.00,0,LWC V2.00 B727,2013-08-14 12:06:00,
2013-08-14 06:11:00,48.5,40.9,30.22,South,171,0.0,1.0,75,0.00,,,0.00,0,LWC V2.00 B727,2013-08-14 12:11:00,
2013-08-14 06:16:00,48.4,41.2,30.22,South,171,0.0,1.0,76,0.00,,,0.00,0,LWC V2.00 B727,2013-08-14 12:16:00,
2013-08-14 06:21:00,48.3,41.1,30.22,South,170,0.0,1.0,76,0.00,,,0.00,5,LWC V2.00 B727,2013-08-14 12:21:00,
2013-08-14 06:26:00,48.3,41.4,30.22,SSE,167,0.0,0.0,77,0.00,,,0.00,7,LWC V2.00 B727,2013-08-14 12:26:00,
2013-08-14 06:31:00,48.3,41.4,30.22,SSE,167,0.0,1.0,77,0.00,,,0.00,9,LWC V2.00 B727,2013-08-14 12:31:00,
2013-08-14 06:36:00,48.3,41.4,30.22,SSE,165,0.0,1.0,77,0.00,,,0.00,12,LWC V2.00 B727,2013-08-14 12:36:00,
2013-08-14 06:41:00,48.3,41.4,30.22,SSE,165,0.0,2.0,77,0.00,,,0.00,18,LWC V2.00 B727,2013-08-14 12:41:00,
2013-08-14 06:46:00,48.4,41.5,30.23,SSE,167,0.0,1.0,77,0.00,,,0.00,21,LWC V2.00 B727,2013-08-14 12:46:00,
2013-08-14 06:51:00,48.5,42.0,30.23,SSE,167,0.0,0.0,78,0.00,,,0.00,37,LWC V2.00 B727,2013-08-14 12:51:00,
2013-08-14 06:56:00,48.6,42.1,30.23,SSE,167,0.0,0.0,78,0.00,,,0.00,47,LWC V2.00 B727,2013-08-14 12:56:00,
2013-08-14 07:01:00,48.7,42.2,30.23,SSE,167,1.0,1.0,78,0.00,,,0.00,65,LWC V2.00 B727,2013-08-14 13:01:00,
2013-08-14 07:06:00,49.2,42.6,30.23,ESE,123,0.0,1.0,78,0.00,,,0.00,81,LWC V2.00 B727,2013-08-14 13:06:00,
2013-08-14 07:11:00,49.6,42.7,30.23,East,91,0.0,1.0,77,0.00,,,0.00,97,LWC V2.00 B727,2013-08-14 13:11:00,
2013-08-14 07:16:00,50.0,43.1,30.23,East,92,0.0,0.0,77,0.00,,,0.00,107,LWC V2.00 B727,2013-08-14 13:16:00,
2013-08-14 07:21:00,50.4,43.5,30.24,East,92,0.0,0.0,77,0.00,,,0.00,139,LWC V2.00 B727,2013-08-14 13:21:00,
2013-08-14 07:26:00,50.8,43.9,30.24,East,92,0.0,1.0,77,0.00,,,0.00,158,LWC V2.00 B727,2013-08-14 13:26:00,
2013-08-14 07:31:00,51.5,44.2,30.23,East,96,0.0,1.0,76,0.00,,,0.00,179,LWC V2.00 B727,2013-08-14 13:31:00,
2013-08-14 07:36:00,52.4,44.4,30.23,East,96,0.0,1.0,74,0.00,,,0.00,199,LWC V2.00 B727,2013-08-14 13:36:00,
2013-08-14 07:41:00,53.2,44.8,30.23,East,96,0.0,0.0,73,0.00,,,0.00,220,LWC V2.00 B727,2013-08-14 13:41:00,
2013-08-14 07:46:00,54.0,45.5,30.23,East,96,0.0,0.0,73,0.00,,,0.00,239,LWC V2.00 B727,2013-08-14 13:46:00,
2013-08-14 07:51:00,54.8,46.3,30.23,East,96,0.0,0.0,73,0.00,,,0.00,257,LWC V2.00 B727,2013-08-14 13:51:00,
2013-08-14 07:56:00,55.7,47.2,30.24,East,95,0.0,0.0,73,0.00,,,0.00,274,LWC V2.00 B727,2013-08-14 13:56:00,
2013-08-14 08:01:00,56.7,47.4,30.24,ENE,69,4.0,4.0,71,0.00,,,0.00,288,LWC V2.00 B727,2013-08-14 14:01:00,
2013-08-14 08:06:00,57.6,47.5,30.24,NNE,32,3.0,3.0,69,0.00,,,0.00,306,LWC V2.00 B727,2013-08-14 14:06:00,
2013-08-14 08:11:00,58.4,47.5,30.24,NNE,30,1.0,2.0,67,0.00,,,0.00,323,LWC V2.00 B727,2013-08-14 14:11:00,
2013-08-14 08:16:00,59.0,48.1,30.24,NNE,24,1.0,2.0,67,0.00,,,0.00,343,LWC V2.00 B727,2013-08-14 14:16:00,
2013-08-14 08:21:00,59.6,48.6,30.23,NNE,25,0.0,1.0,67,0.00,,,0.00,360,LWC V2.00 B727,2013-08-14 14:21:00,
2013-08-14 08:26:00,60.2,49.2,30.23,NNE,25,0.0,1.0,67,0.00,,,0.00,378,LWC V2.00 B727,2013-08-14 14:26:00,
2013-08-14 08:31:00,60.9,49.9,30.22,NNE,24,0.0,1.0,67,0.00,,,0.00,396,LWC V2.00 B727,2013-08-14 14:31:00,
2013-08-14 08:36:00,61.6,50.5,30.23,NNE,25,0.0,1.0,67,0.00,,,0.00,413,LWC V2.00 B727,2013-08-14 14:36:00,
2013-08-14 08:41:00,62.4,50.5,30.23,NNE,24,0.0,2.0,65,0.00,,,0.00,429,LWC V2.00 B727,2013-08-14 14:41:00,
2013-08-14 08:46:00,63.1,51.6,30.22,NE,38,1.0,1.0,66,0.00,,,0.00,448,LWC V2.00 B727,2013-08-14 14:46:00,
2013-08-14 08:51:00,63.8,51.4,30.23,NE,35,3.0,4.0,64,0.00,,,0.00,464,LWC V2.00 B727,2013-08-14 14:51:00,
2013-08-14 08:56:00,64.4,52.0,30.23,North,10,2.0,2.0,64,0.00,,,0.00,480,LWC V2.00 B727,2013-08-14 14:56:00,
2013-08-14 09:01:00,65.0,52.1,30.22,NNW,341,0.0,1.0,63,0.00,,,0.00,496,LWC V2.00 B727,2013-08-14 15:01:00,
2013-08-14 09:06:00,65.4,52.0,30.22,NNW,330,3.0,3.0,62,0.00,,,0.00,512,LWC V2.00 B727,2013-08-14 15:06:00,
2013-08-14 09:11:00,65.8,51.5,30.22,NNW,329,1.0,1.0,60,0.00,,,0.00,529,LWC V2.00 B727,2013-08-14 15:11:00,
2013-08-14 09:16:00,66.3,52.0,30.22,NNW,329,0.0,0.0,60,0.00,,,0.00,545,LWC V2.00 B727,2013-08-14 15:16:00,
2013-08-14 09:21:00,66.8,52.0,30.21,NW,325,0.0,3.0,59,0.00,,,0.00,561,LWC V2.00 B727,2013-08-14 15:21:00,
2013-08-14 09:26:00,67.2,51.9,30.21,WNW,296,0.0,4.0,58,0.00,,,0.00,577,LWC V2.00 B727,2013-08-14 15:26:00,
2013-08-14 09:31:00,67.6,52.3,30.21,NNW,331,1.0,2.0,58,0.00,,,0.00,592,LWC V2.00 B727,2013-08-14 15:31:00,
2013-08-14 09:36:00,67.9,51.1,30.21,NNW,329,0.0,0.0,55,0.00,,,0.00,608,LWC V2.00 B727,2013-08-14 15:36:00,
2013-08-14 09:41:00,68.2,51.4,30.21,NNW,334,0.0,3.0,55,0.00,,,0.00,624,LWC V2.00 B727,2013-08-14 15:41:00,
2013-08-14 09:46:00,68.5,51.7,30.20,NNW,335,0.0,1.0,55,0.00,,,0.00,638,LWC V2.00 B727,2013-08-14 15:46:00,
2013-08-14 09:51:00,68.8,52.0,30.21,NNW,335,1.0,2.0,55,0.00,,,0.00,656,LWC V2.00 B727,2013-08-14 15:51:00,
2013-08-14 09:54:00,69.1,52.2,30.21,NNW,336,0.0,0.0,55,0.00,,,0.00,659,LWC V2.00 B727,2013-08-14 15:54:00,
2013-08-14 09:59:00,69.5,51.6,30.21,NNW,335,0.0,1.0,53,0.00,,,0.00,675,LWC V2.00 B727,2013-08-14 15:59:00,
2013-08-14 10:04:00,69.8,51.4,30.20,NNW,344,2.0,6.0,52,0.00,,,0.00,689,LWC V2.00 B727,2013-08-14 16:04:00,
2013-08-14 10:09:00,70.1,51.1,30.20,North,355,0.0,5.0,51,0.00,,,0.00,705,LWC V2.00 B727,2013-08-14 16:09:00,
2013-08-14 10:14:00,70.4,51.9,30.20,NNW,344,3.0,3.0,52,0.00,,,0.00,717,LWC V2.00 B727,2013-08-14 16:14:00,
2013-08-14 10:19:00,70.8,51.8,30.20,NNW,347,0.0,4.0,51,0.00,,,0.00,731,LWC V2.00 B727,2013-08-14 16:19:00,
2013-08-14 10:21:00,70.9,51.3,30.20,NNW,348,2.0,4.0,50,0.00,,,0.00,737,LWC V2.00 B727,2013-08-14 16:21:00,
2013-08-14 10:26:00,71.2,51.6,30.21,North,355,0.0,0.0,50,0.00,,,0.00,751,LWC V2.00 B727,2013-08-14 16:26:00,
2013-08-14 10:31:00,71.5,50.2,30.20,North,349,1.0,3.0,47,0.00,,,0.00,763,LWC V2.00 B727,2013-08-14 16:31:00,
2013-08-14 10:36:00,71.9,50.0,30.20,North,355,1.0,5.0,46,0.00,,,0.00,775,LWC V2.00 B727,2013-08-14 16:36:00,
2013-08-14 10:41:00,72.3,50.3,30.20,North,355,3.0,7.0,46,0.00,,,0.00,784,LWC V2.00 B727,2013-08-14 16:41:00,
2013-08-14 10:46:00,72.9,48.4,30.20,SW,223,0.0,0.0,42,0.00,,,0.00,800,LWC V2.00 B727,2013-08-14 16:46:00,
2013-08-14 10:51:00,73.4,48.9,30.20,SW,227,1.0,5.0,42,0.00,,,0.00,814,LWC V2.00 B727,2013-08-14 16:51:00,
2013-08-14 10:56:00,74.1,46.9,30.20,WSW,239,4.0,6.0,38,0.00,,,0.00,817,LWC V2.00 B727,2013-08-14 16:56:00,
2013-08-14 11:01:00,74.7,49.4,30.20,NNW,348,5.0,5.0,41,0.00,,,0.00,830,LWC V2.00 B727,2013-08-14 17:01:00,
2013-08-14 11:06:00,75.3,48.6,30.20,SW,223,4.0,6.0,39,0.00,,,0.00,842,LWC V2.00 B727,2013-08-14 17:06:00,
2013-08-14 11:11:00,75.8,50.4,30.19,SW,227,0.0,3.0,41,0.00,,,0.00,853,LWC V2.00 B727,2013-08-14 17:11:00,
2013-08-14 11:16:00,76.2,47.3,30.19,NW,313,0.0,9.0,36,0.00,,,0.00,867,LWC V2.00 B727,2013-08-14 17:16:00,
2013-08-14 11:21:00,76.6,49.1,30.19,WNW,299,2.0,6.0,38,0.00,,,0.00,877,LWC V2.00 B727,2013-08-14 17:21:00,
2013-08-14 11:26:00,76.8,47.1,30.19,NNW,348,5.0,9.0,35,0.00,,,0.00,877,LWC V2.00 B727,2013-08-14 17:26:00,
2013-08-14 11:31:00,76.9,48.6,30.19,WSW,242,3.0,7.0,37,0.00,,,0.00,893,LWC V2.00 B727,2013-08-14 17:31:00,
2013-08-14 11:36:00,77.2,49.6,30.19,NW,325,2.0,5.0,38,0.00,,,0.00,898,LWC V2.00 B727,2013-08-14 17:36:00,
2013-08-14 11:41:00,77.3,47.5,30.19,NNW,338,3.0,6.0,35,0.00,,,0.00,904,LWC V2.00 B727,2013-08-14 17:41:00,
2013-08-14 11:46:00,77.5,46.9,30.19,SW,225,1.0,6.0,34,0.00,,,0.00,916,LWC V2.00 B727,2013-08-14 17:46:00,
2013-08-14 11:51:00,78.3,47.6,30.18,WSW,238,3.0,8.0,34,0.00,,,0.00,925,LWC V2.00 B727,2013-08-14 17:51:00,
2013-08-14 11:56:00,79.1,46.7,30.18,SW,229,0.0,5.0,32,0.00,,,0.00,933,LWC V2.00 B727,2013-08-14 17:56:00,
2013-08-14 12:01:00,79.5,46.2,30.18,North,5,2.0,5.0,31,0.00,,,0.00,944,LWC V2.00 B727,2013-08-14 18:01:00,
2013-08-14 12:06:00,79.4,45.2,30.18,NW,316,1.0,4.0,30,0.00,,,0.00,949,LWC V2.00 B727,2013-08-14 18:06:00,
2013-08-14 12:11:00,79.4,46.1,30.17,North,0,0.0,5.0,31,0.00,,,0.00,951,LWC V2.00 B727,2013-08-14 18:11:00,
2013-08-14 12:16:00,79.4,46.1,30.17,NNW,333,1.0,5.0,31,0.00,,,0.00,953,LWC V2.00 B727,2013-08-14 18:16:00,
2013-08-14 12:21:00,79.5,46.2,30.17,NNW,344,2.0,6.0,31,0.00,,,0.00,951,LWC V2.00 B727,2013-08-14 18:21:00,
2013-08-14 12:26:00,79.8,43.8,30.17,SW,227,1.0,5.0,28,0.00,,,0.00,958,LWC V2.00 B727,2013-08-14 18:26:00,
2013-08-14 12:31:00,80.5,43.4,30.17,SW,225,2.0,6.0,27,0.00,,,0.00,970,LWC V2.00 B727,2013-08-14 18:31:00,
2013-08-14 12:36:00,81.1,44.9,30.16,SW,232,6.0,7.0,28,0.00,,,0.00,974,LWC V2.00 B727,2013-08-14 18:36:00,
2013-08-14 12:41:00,81.4,45.1,30.16,SSW,213,1.0,5.0,28,0.00,,,0.00,976,LWC V2.00 B727,2013-08-14 18:41:00,
2013-08-14 12:46:00,81.5,46.2,30.15,NNW,333,2.0,8.0,29,0.00,,,0.00,981,LWC V2.00 B727,2013-08-14 18:46:00,
2013-08-14 12:51:00,82.0,43.7,30.15,WSW,237,1.0,6.0,26,0.00,,,0.00,986,LWC V2.00 B727,2013-08-14 18:51:00,
2013-08-14 12:56:00,82.1,44.8,30.14,SSW,194,4.0,9.0,27,0.00,,,0.00,990,LWC V2.00 B727,2013-08-14 18:56:00,
2013-08-14 13:01:00,82.4,45.0,30.14,WSW,237,4.0,9.0,27,0.00,,,0.00,1000,LWC V2.00 B727,2013-08-14 19:01:00,
2013-08-14 13:06:00,83.0,43.5,30.14,West,272,4.0,11.0,25,0.00,,,0.00,1020,LWC V2.00 B727,2013-08-14 19:06:00,
2013-08-14 13:11:00,82.1,45.7,30.14,North,0,2.0,5.0,28,0.00,,,0.00,1021,LWC V2.00 B727,2013-08-14 19:11:00,
2013-08-14 13:13:00,81.7,45.4,30.13,North,0,1.0,4.0,28,0.00,,,0.00,1030,LWC V2.00 B727,2013-08-14 19:13:00,
2013-08-14 13:18:00,81.6,48.9,30.13,North,0,1.0,6.0,32,0.00,,,0.00,1032,LWC V2.00 B727,2013-08-14 19:18:00,
2013-08-14 13:23:00,81.5,45.2,30.13,North,355,3.0,8.0,28,0.00,,,0.00,991,LWC V2.00 B727,2013-08-14 19:23:00,
2013-08-14 13:28:00,81.1,45.8,30.13,NW,317,6.0,8.0,29,0.00,,,0.00,983,LWC V2.00 B727,2013-08-14 19:28:00,
2013-08-14 13:33:00,82.1,44.8,30.12,SSW,205,2.0,11.0,27,0.00,,,0.00,993,LWC V2.00 B727,2013-08-14 19:33:00,
2013-08-14 13:38:00,82.4,46.0,30.12,WSW,238,3.0,10.0,28,0.00,,,0.00,993,LWC V2.00 B727,2013-08-14 19:38:00,
2013-08-14 13:43:00,82.6,46.2,30.12,North,5,8.0,8.0,28,0.00,,,0.00,1004,LWC V2.00 B727,2013-08-14 19:43:00,
2013-08-14 13:48:00,82.7,45.3,30.13,WSW,240,5.0,8.0,27,0.00,,,0.00,1004,LWC V2.00 B727,2013-08-14 19:48:00,
2013-08-14 13:53:00,82.4,43.0,30.12,NW,317,4.0,9.0,25,0.00,,,0.00,1062,LWC V2.00 B727,2013-08-14 19:53:00,
2013-08-14 13:58:00,81.6,44.4,30.12,NNW,344,3.0,5.0,27,0.00,,,0.00,257,LWC V2.00 B727,2013-08-14 19:58:00,
2013-08-14 14:03:00,80.9,46.5,30.13,NNW,344,5.0,8.0,30,0.00,,,0.00,359,LWC V2.00 B727,2013-08-14 20:03:00,
2013-08-14 14:08:00,79.8,46.5,30.13,NNW,347,2.0,10.0,31,0.00,,,0.00,499,LWC V2.00 B727,2013-08-14 20:08:00,
2013-08-14 14:13:00,78.8,45.6,30.13,North,355,6.0,10.0,31,0.00,,,0.00,246,LWC V2.00 B727,2013-08-14 20:13:00,
2013-08-14 14:18:00,77.5,46.1,30.13,North,10,4.0,6.0,33,0.00,,,0.00,258,LWC V2.00 B727,2013-08-14 20:18:00,
2013-08-14 14:23:00,75.8,44.6,30.13,North,5,9.0,9.0,33,0.00,,,0.00,227,LWC V2.00 B727,2013-08-14 20:23:00,
2013-08-14 14:28:00,74.6,45.9,30.13,North,5,3.0,8.0,36,0.00,,,0.00,976,LWC V2.00 B727,2013-08-14 20:28:00,
2013-08-14 14:33:00,75.1,45.6,30.12,NNE,12,9.0,9.0,35,0.00,,,0.00,919,LWC V2.00 B727,2013-08-14 20:33:00,
2013-08-14 14:38:00,75.9,47.0,30.12,NNE,17,8.0,12.0,36,0.00,,,0.00,944,LWC V2.00 B727,2013-08-14 20:38:00,
2013-08-14 14:43:00,76.5,46.8,30.12,NNE,28,4.0,9.0,35,0.00,,,0.00,919,LWC V2.00 B727,2013-08-14 20:43:00,
2013-08-14 14:48:00,76.9,46.4,30.12,NNE,32,7.0,11.0,34,0.00,,,0.00,923,LWC V2.00 B727,2013-08-14 20:48:00,
2013-08-14 14:53:00,77.0,45.7,30.12,NNE,22,6.0,13.0,33,0.00,,,0.00,905,LWC V2.00 B727,2013-08-14 20:53:00,
2013-08-14 14:58:00,76.3,45.1,30.12,ENE,59,5.0,8.0,33,0.00,,,0.00,148,LWC V2.00 B727,2013-08-14 20:58:00,
2013-08-14 15:03:00,75.9,46.3,30.11,NE,36,3.0,8.0,35,0.00,,,0.00,932,LWC V2.00 B727,2013-08-14 21:03:00,
2013-08-14 15:08:00,76.9,47.1,30.11,NNE,13,3.0,10.0,35,0.00,,,0.00,940,LWC V2.00 B727,2013-08-14 21:08:00,
2013-08-14 15:13:00,78.3,47.6,30.10,NNE,17,3.0,8.0,34,0.00,,,0.00,935,LWC V2.00 B727,2013-08-14 21:13:00,
2013-08-14 15:18:00,79.6,48.7,30.10,NE,48,5.0,5.0,34,0.00,,,0.00,976,LWC V2.00 B727,2013-08-14 21:18:00,
2013-08-14 15:23:00,80.3,48.5,30.09,East,82,0.0,8.0,33,0.00,,,0.00,991,LWC V2.00 B727,2013-08-14 21:23:00,
2013-08-14 15:28:00,80.7,47.2,30.09,SE,128,1.0,5.0,31,0.00,,,0.00,1021,LWC V2.00 B727,2013-08-14 21:28:00,
2013-08-14 15:33:00,79.8,48.1,30.09,North,355,3.0,8.0,33,0.00,,,0.00,1021,LWC V2.00 B727,2013-08-14 21:33:00,
2013-08-14 15:38:00,79.0,44.9,30.09,North,355,4.0,10.0,30,0.00,,,0.00,863,LWC V2.00 B727,2013-08-14 21:38:00,
2013-08-14 15:43:00,78.5,46.2,30.08,NNW,346,3.0,5.0,32,0.00,,,0.00,779,LWC V2.00 B727,2013-08-14 21:43:00,
2013-08-14 15:48:00,78.5,46.2,30.08,SW,221,1.0,7.0,32,0.00,,,0.00,766,LWC V2.00 B727,2013-08-14 21:48:00,
2013-08-14 15:53:00,79.5,45.3,30.08,North,355,5.0,6.0,30,0.00,,,0.00,749,LWC V2.00 B727,2013-08-14 21:53:00,
2013-08-14 15:58:00,79.4,45.2,30.08,NNW,340,2.0,3.0,30,0.00,,,0.00,740,LWC V2.00 B727,2013-08-14 21:58:00,
2013-08-14 16:03:00,79.2,45.9,30.08,North,349,5.0,5.0,31,0.00,,,0.00,817,LWC V2.00 B727,2013-08-14 22:03:00,
2013-08-14 16:08:00,78.7,45.5,30.09,North,355,0.0,7.0,31,0.00,,,0.00,128,LWC V2.00 B727,2013-08-14 22:08:00,
2013-08-14 16:13:00,78.5,46.2,30.09,North,355,2.0,4.0,32,0.00,,,0.00,90,LWC V2.00 B727,2013-08-14 22:13:00,
2013-08-14 16:18:00,78.0,44.9,30.09,North,0,3.0,4.0,31,0.00,,,0.00,83,LWC V2.00 B727,2013-08-14 22:18:00,
2013-08-14 16:23:00,77.4,43.5,30.09,North,355,2.0,3.0,30,0.00,,,0.00,81,LWC V2.00 B727,2013-08-14 22:23:00,
2013-08-14 16:28:00,76.8,43.9,30.09,NNW,342,0.0,2.0,31,0.00,,,0.00,109,LWC V2.00 B727,2013-08-14 22:28:00,
2013-08-14 16:33:00,76.4,44.3,30.09,North,350,0.0,2.0,32,0.00,,,0.00,141,LWC V2.00 B727,2013-08-14 22:33:00,
2013-08-14 16:38:00,76.0,44.8,30.09,North,0,2.0,4.0,33,0.00,,,0.00,135,LWC V2.00 B727,2013-08-14 22:38:00,
2013-08-14 16:43:00,75.6,44.5,30.09,NNW,336,3.0,4.0,33,0.00,,,0.00,151,LWC V2.00 B727,2013-08-14 22:43:00,
2013-08-14 16:48:00,75.2,43.3,30.10,NNW,342,7.0,7.0,32,0.00,,,0.00,156,LWC V2.00 B727,2013-08-14 22:48:00,
2013-08-14 16:53:00,75.0,43.9,30.09,North,355,4.0,6.0,33,0.00,,,0.00,185,LWC V2.00 B727,2013-08-14 22:53:00,
2013-08-14 16:58:00,75.1,44.0,30.09,NNW,347,5.0,9.0,33,0.00,,,0.00,230,LWC V2.00 B727,2013-08-14 22:58:00,
2013-08-14 17:03:00,75.4,45.1,30.09,NNW,348,4.0,8.0,34,0.00,,,0.00,687,LWC V2.00 B727,2013-08-14 23:03:00,
2013-08-14 17:08:00,76.1,45.7,30.09,NNW,345,6.0,9.0,34,0.00,,,0.00,635,LWC V2.00 B727,2013-08-14 23:08:00,
2013-08-14 17:13:00,76.4,44.3,30.09,NNW,348,4.0,9.0,32,0.00,,,0.00,130,LWC V2.00 B727,2013-08-14 23:13:00,
2013-08-14 17:18:00,76.1,43.2,30.09,NNW,336,4.0,9.0,31,0.00,,,0.00,116,LWC V2.00 B727,2013-08-14 23:18:00,
2013-08-14 17:23:00,75.6,43.6,30.10,NNW,327,3.0,6.0,32,0.00,,,0.00,100,LWC V2.00 B727,2013-08-14 23:23:00,
2013-08-14 17:28:00,75.1,44.0,30.10,NW,326,5.0,6.0,33,0.00,,,0.00,95,LWC V2.00 B727,2013-08-14 23:28:00,
2013-08-14 17:33:00,74.5,41.9,30.10,NNW,342,7.0,10.0,31,0.00,,,0.00,135,LWC V2.00 B727,2013-08-14 23:33:00,
2013-08-14 17:38:00,73.9,43.0,30.10,NNW,341,8.0,9.0,33,0.00,,,0.00,533,LWC V2.00 B727,2013-08-14 23:38:00,
2013-08-14 17:43:00,73.9,44.5,30.09,NNW,331,4.0,6.0,35,0.00,,,0.00,526,LWC V2.00 B727,2013-08-14 23:43:00,
2013-08-14 17:48:00,74.2,44.0,30.09,North,0,4.0,7.0,34,0.00,,,0.00,455,LWC V2.00 B727,2013-08-14 23:48:00,
2013-08-14 17:53:00,74.3,43.3,30.09,NNW,344,0.0,6.0,33,0.00,,,0.00,417,LWC V2.00 B727,2013-08-14 23:53:00,
2013-08-14 17:58:00,74.5,44.3,30.09,North,355,5.0,8.0,34,0.00,,,0.00,367,LWC V2.00 B727,2013-08-14 23:58:00,
2013-08-14 18:03:00,74.7,42.9,30.09,WNW,287,2.0,3.0,32,0.00,,,0.00,329,LWC V2.00 B727,2013-08-15 00:03:00,
2013-08-14 18:08:00,75.3,42.6,30.09,SW,236,4.0,4.0,31,0.00,,,0.00,302,LWC V2.00 B727,2013-08-15 00:08:00,
2013-08-14 18:13:00,76.0,43.2,30.09,WSW,237,0.0,3.0,31,0.00,,,0.00,281,LWC V2.00 B727,2013-08-15 00:13:00,
2013-08-14 18:18:00,76.3,42.6,30.09,WSW,244,2.0,4.0,30,0.00,,,0.00,118,LWC V2.00 B727,2013-08-15 00:18:00,
2013-08-14 18:23:00,76.5,42.7,30.09,WSW,242,0.0,1.0,30,0.00,,,0.00,72,LWC V2.00 B727,2013-08-15 00:23:00,
2013-08-14 18:28:00,76.5,43.6,30.09,NW,310,0.0,3.0,31,0.00,,,0.00,79,LWC V2.00 B727,2013-08-15 00:28:00,
2013-08-14 18:33:00,76.5,44.4,30.09,NW,310,1.0,1.0,32,0.00,,,0.00,98,LWC V2.00 B727,2013-08-15 00:33:00,
2013-08-14 18:38:00,76.5,43.6,30.09,NW,310,0.0,3.0,31,0.00,,,0.00,70,LWC V2.00 B727,2013-08-15 00:38:00,
2013-08-14 18:43:00,76.4,42.7,30.09,NW,310,0.0,3.0,30,0.00,,,0.00,72,LWC V2.00 B727,2013-08-15 00:43:00,
2013-08-14 18:48:00,76.2,42.5,30.10,NW,310,0.0,0.0,30,0.00,,,0.00,69,LWC V2.00 B727,2013-08-15 00:48:00,
2013-08-14 18:53:00,76.1,44.9,30.10,NW,310,2.0,2.0,33,0.00,,,0.00,81,LWC V2.00 B727,2013-08-15 00:53:00,
2013-08-14 18:58:00,75.8,42.1,30.10,WSW,253,0.0,2.0,30,0.00,,,0.00,83,LWC V2.00 B727,2013-08-15 00:58:00,
2013-08-14 19:03:00,75.7,42.1,30.10,WSW,253,0.0,0.0,30,0.00,,,0.00,53,LWC V2.00 B727,2013-08-15 01:03:00,
2013-08-14 19:08:00,75.5,43.6,30.10,WSW,242,0.0,2.0,32,0.00,,,0.00,33,LWC V2.00 B727,2013-08-15 01:08:00,
2013-08-14 19:13:00,75.4,44.3,30.10,WSW,242,0.0,1.0,33,0.00,,,0.00,32,LWC V2.00 B727,2013-08-15 01:13:00,
2013-08-14 19:18:00,75.1,43.2,30.10,NNW,338,3.0,4.0,32,0.00,,,0.00,33,LWC V2.00 B727,2013-08-15 01:18:00,
2013-08-14 19:23:00,74.8,43.0,30.10,NNW,337,2.0,3.0,32,0.00,,,0.00,42,LWC V2.00 B727,2013-08-15 01:23:00,
2013-08-14 19:28:00,74.4,42.6,30.11,NNW,348,2.0,4.0,32,0.00,,,0.00,46,LWC V2.00 B727,2013-08-15 01:28:00,
2013-08-14 19:33:00,74.1,40.7,30.11,NNW,347,0.0,1.0,30,0.00,,,0.00,47,LWC V2.00 B727,2013-08-15 01:33:00,
2013-08-14 19:38:00,73.8,43.7,30.11,NNW,348,0.0,1.0,34,0.00,,,0.00,44,LWC V2.00 B727,2013-08-15 01:38:00,
2013-08-14 19:43:00,73.5,43.4,30.11,NNW,348,0.0,0.0,34,0.00,,,0.00,28,LWC V2.00 B727,2013-08-15 01:43:00,
2013-08-14 19:48:00,73.0,43.7,30.11,NNW,348,0.0,0.0,35,0.00,,,0.00,16,LWC V2.00 B727,2013-08-15 01:48:00,
2013-08-14 19:53:00,72.3,43.1,30.11,NNW,347,0.0,0.0,35,0.00,,,0.00,0,LWC V2.00 B727,2013-08-15 01:53:00,
2013-08-14 19:58:00,71.4,44.5,30.11,NNW,347,0.0,0.0,38,0.00,,,0.00,0,LWC V2.00 B727,2013-08-15 01:58:00,
2013-08-14 20:03:00,70.5,42.2,30.11,NNW,346,0.0,0.0,36,0.00,,,0.00,0,LWC V2.00 B727,2013-08-15 02:03:00,
2013-08-14 20:08:00,69.4,42.7,30.11,NNW,347,0.0,0.0,38,0.00,,,0.00,0,LWC V2.00 B727,2013-08-15 02:08:00,
2013-08-14 20:13:00,68.1,42.9,30.12,NNW,346,0.0,0.0,40,0.00,,,0.00,0,LWC V2.00 B727,2013-08-15 02:13:00,
2013-08-14 20:18:00,67.2,42.1,30.11,NNW,348,0.0,0.0,40,0.00,,,0.00,0,LWC V2.00 B727,2013-08-15 02:18:00,
2013-08-14 20:23:00,66.4,42.0,30.12,NNW,348,0.0,0.0,41,0.00,,,0.00,0,LWC V2.00 B727,2013-08-15 02:23:00,
2013-08-14 20:28:00,65.4,41.7,30.12,SE,128,0.0,0.0,42,0.00,,,0.00,0,LWC V2.00 B727,2013-08-15 02:28:00,
2013-08-14 20:33:00,64.7,41.7,30.12,SE,128,0.0,0.0,43,0.00,,,0.00,0,LWC V2.00 B727,2013-08-15 02:33:00,
2013-08-14 20:38:00,64.2,41.8,30.12,SE,128,0.0,0.0,44,0.00,,,0.00,0,LWC V2.00 B727,2013-08-15 02:38:00,
2013-08-14 20:43:00,63.7,42.5,30.13,SE,130,0.0,1.0,46,0.00,,,0.00,0,LWC V2.00 B727,2013-08-15 02:43:00,
2013-08-14 20:48:00,63.2,42.1,30.13,SE,126,0.0,0.0,46,0.00,,,0.00,0,LWC V2.00 B727,2013-08-15 02:48:00,
2013-08-14 20:53:00,62.6,41.5,30.13,SSE,155,2.0,4.0,46,0.00,,,0.00,0,LWC V2.00 B727,2013-08-15 02:53:00,
2013-08-14 20:58:00,62.2,42.3,30.13,South,171,2.0,4.0,48,0.00,,,0.00,0,LWC V2.00 B727,2013-08-15 02:58:00,
2013-08-14 21:03:00,61.7,42.3,30.14,SSE,149,2.0,5.0,49,0.00,,,0.00,0,LWC V2.00 B727,2013-08-15 03:03:00,
2013-08-14 21:08:00,61.3,42.0,30.14,SSE,150,0.0,1.0,49,0.00,,,0.00,0,LWC V2.00 B727,2013-08-15 03:08:00,
2013-08-14 21:13:00,60.5,41.8,30.14,SSE,168,2.0,4.0,50,0.00,,,0.00,0,LWC V2.00 B727,2013-08-15 03:13:00,
2013-08-14 21:18:00,60.1,41.9,30.14,SE,136,1.0,4.0,51,0.00,,,0.00,0,LWC V2.00 B727,2013-08-15 03:18:00,
2013-08-14 21:23:00,60.0,41.8,30.14,ESE,111,0.0,3.0,51,0.00,,,0.00,0,LWC V2.00 B727,2013-08-15 03:23:00,
2013-08-14 21:28:00,59.8,41.6,30.14,ESE,119,0.0,2.0,51,0.00,,,0.00,0,LWC V2.00 B727,2013-08-15 03:28:00,
2013-08-14 21:33:00,59.4,40.8,30.15,ESE,123,0.0,1.0,50,0.00,,,0.00,0,LWC V2.00 B727,2013-08-15 03:33:00,
2013-08-14 21:38:00,59.1,41.0,30.15,ESE,123,0.0,0.0,51,0.00,,,0.00,0,LWC V2.00 B727,2013-08-15 03:38:00,
2013-08-14 21:43:00,59.0,41.4,30.15,ESE,123,0.0,0.0,52,0.00,,,0.00,0,LWC V2.00 B727,2013-08-15 03:43:00,
2013-08-14 21:48:00,58.6,41.0,30.15,ESE,123,0.0,1.0,52,0.00,,,0.00,0,LWC V2.00 B727,2013-08-15 03:48:00,
2013-08-14 21:53:00,58.1,40.6,30.16,ESE,123,0.0,1.0,52,0.00,,,0.00,0,LWC V2.00 B727,2013-08-15 03:53:00,
2013-08-14 21:58:00,57.9,40.9,30.16,SE,124,0.0,0.0,53,0.00,,,0.00,0,LWC V2.00 B727,2013-08-15 03:58:00,
2013-08-14 22:01:00,57.8,40.8,30.16,SE,124,0.0,1.0,53,0.00,,,0.00,0,LWC V2.00 B727,2013-08-15 04:01:00,
2013-08-14 22:06:00,57.6,40.6,30.16,ESE,123,0.0,1.0,53,0.00,,,0.00,0,LWC V2.00 B727,2013-08-15 04:06:00,
2013-08-14 22:11:00,57.5,41.0,30.16,SE,124,0.0,1.0,54,0.00,,,0.00,0,LWC V2.00 B727,2013-08-15 04:11:00,
2013-08-14 22:16:00,57.5,41.0,30.16,SE,124,0.0,1.0,54,0.00,,,0.00,0,LWC V2.00 B727,2013-08-15 04:16:00,
2013-08-14 22:21:00,57.4,40.4,30.16,SE,125,0.0,2.0,53,0.00,,,0.00,0,LWC V2.00 B727,2013-08-15 04:21:00,
2013-08-14 22:26:00,57.3,40.8,30.16,SE,126,0.0,2.0,54,0.00,,,0.00,0,LWC V2.00 B727,2013-08-15 04:26:00,
2013-08-14 22:31:00,57.3,41.3,30.16,SE,125,0.0,0.0,55,0.00,,,0.00,0,LWC V2.00 B727,2013-08-15 04:31:00,
2013-08-14 22:36:00,57.6,41.1,30.16,ESE,109,0.0,4.0,54,0.00,,,0.00,0,LWC V2.00 B727,2013-08-15 04:36:00,
2013-08-14 22:41:00,58.1,41.1,30.16,SSE,156,3.0,3.0,53,0.00,,,0.00,0,LWC V2.00 B727,2013-08-15 04:41:00,
2013-08-14 22:46:00,58.5,40.9,30.16,West,260,0.0,5.0,52,0.00,,,0.00,0,LWC V2.00 B727,2013-08-15 04:46:00,
2013-08-14 22:51:00,58.6,41.0,30.17,NNE,27,2.0,4.0,52,0.00,,,0.00,0,LWC V2.00 B727,2013-08-15 04:51:00,
2013-08-14 22:56:00,58.6,41.5,30.17,ENE,70,0.0,0.0,53,0.00,,,0.00,0,LWC V2.00 B727,2013-08-15 04:56:00,
2013-08-14 23:01:00,58.6,41.5,30.17,SE,124,0.0,3.0,53,0.00,,,0.00,0,LWC V2.00 B727,2013-08-15 05:01:00,
2013-08-14 23:06:00,59.0,41.9,30.17,SE,131,0.0,1.0,53,0.00,,,0.00,0,LWC V2.00 B727,2013-08-15 05:06:00,
2013-08-14 23:11:00,59.0,41.9,30.17,SE,128,0.0,1.0,53,0.00,,,0.00,0,LWC V2.00 B727,2013-08-15 05:11:00,
2013-08-14 23:16:00,59.0,41.4,30.17,SSW,207,5.0,5.0,52,0.00,,,0.00,0,LWC V2.00 B727,2013-08-15 05:16:00,
2013-08-14 23:21:00,59.4,41.3,30.17,SE,139,0.0,2.0,51,0.00,,,0.00,0,LWC V2.00 B727,2013-08-15 05:21:00,
2013-08-14 23:26:00,59.3,41.2,30.17,SE,135,0.0,1.0,51,0.00,,,0.00,0,LWC V2.00 B727,2013-08-15 05:26:00,
2013-08-14 23:31:00,59.0,40.9,30.17,SE,144,2.0,2.0,51,0.00,,,0.00,0,LWC V2.00 B727,2013-08-15 05:31:00,
2013-08-14 23:36:00,59.0,40.9,30.17,SSE,157,2.0,2.0,51,0.00,,,0.00,0,LWC V2.00 B727,2013-08-15 05:36:00,
2013-08-14 23:41:00,58.6,40.5,30.17,SSE,155,1.0,3.0,51,0.00,,,0.00,0,LWC V2.00 B727,2013-08-15 05:41:00,
2013-08-14 23:46:00,58.4,40.3,30.17,SSE,154,1.0,2.0,51,0.00,,,0.00,0,LWC V2.00 B727,2013-08-15 05:46:00,
2013-08-14 23:51:00,58.4,40.3,30.17,SSE,154,1.0,4.0,51,0.00,,,0.00,0,LWC V2.00 B727,2013-08-15 05:51:00,
2013-08-14 23:56:00,58.3,40.8,30.17,South,177,0.0,1.0,52,0.00,,,0.00,0,LWC V2.00 B727,2013-08-15 05:56:00,